When you browse on this site, cookies collect data to enhance your experience and personalize the content and advertising you see.
Visit our Privacy Policy to learn more. By continuing to use the site, you agree to this use of cookies and data.
  • In Romania
  • List of Countries
  • For 7 days
  • Water Temperature
  • Satellite Maps
  • Weather Map
  • Weather Widgets
  • user-avatar
    Login

    Hourly Weather Coro

    Today, 16 February, Saturday

    Time Temperature Precipitation Wind Pressure Humidity
    00:00 +27°C° 0 mm 5 mps 756 mmHg 88%
    01:00 +26°C° 0 mm 5 mps 756 mmHg 90%
    02:00 +26°C° 0 mm 5 mps 756 mmHg 91%
    03:00 +26°C° 0 mm 5 mps 755 mmHg 91%
    04:00 +26°C° 0 mm 5 mps 755 mmHg 92%
    05:00 +26°C° 0 mm 5 mps 756 mmHg 90%
    06:00 +27°C° 0 mm 5 mps 756 mmHg 88%
    07:00 +27°C° 0 mm 5 mps 756 mmHg 86%
    08:00 +30°C° 0 mm 5 mps 756 mmHg 72%
    09:00 +34°C° 0 mm 5 mps 756 mmHg 58%
    10:00 +36°C° 0 mm 5 mps 757 mmHg 44%
    11:00 +39°C° 0 mm 5 mps 756 mmHg 40%
    12:00 +40°C° 0 mm 6 mps 755 mmHg 36%
    13:00 +41°C° 0 mm 7 mps 754 mmHg 33%
    14:00 +40°C° 0 mm 7 mps 754 mmHg 38%
    15:00 +38°C° 0 mm 8 mps 754 mmHg 44%
    16:00 +37°C° 0 mm 8 mps 753 mmHg 49%
    17:00 +34°C° 0 mm 8 mps 754 mmHg 56%
    18:00 +32°C° 0 mm 7 mps 754 mmHg 64%
    19:00 +29°C° 0 mm 7 mps 754 mmHg 71%
    20:00 +28°C° 0 mm 7 mps 755 mmHg 75%
    21:00 +28°C° 0 mm 6 mps 756 mmHg 78%
    22:00 +28°C° 0 mm 6 mps 756 mmHg 82%
    23:00 +27°C° 0 mm 6 mps 756 mmHg 83%

    Tomorrow, 17 February, Sunday

    Time Temperature Precipitation Wind Pressure Humidity
    00:00 +27°C° 0 mm 6 mps 756 mmHg 85%
    01:00 +27°C° 0 mm 6 mps 756 mmHg 87%
    02:00 +27°C° 0 mm 6 mps 756 mmHg 87%
    03:00 +27°C° 0 mm 6 mps 755 mmHg 87%
    04:00 +27°C° 0 mm 6 mps 755 mmHg 87%
    05:00 +27°C° 0 mm 6 mps 756 mmHg 86%
    06:00 +28°C° 0 mm 7 mps 756 mmHg 85%
    07:00 +28°C° 0 mm 7 mps 757 mmHg 84%
    08:00 +30°C° 0 mm 7 mps 757 mmHg 74%
    09:00 +33°C° 0 mm 7 mps 757 mmHg 65%
    10:00 +34°C° 0 mm 7 mps 758 mmHg 56%
    11:00 +36°C° 0 mm 7 mps 757 mmHg 48%
    12:00 +39°C° 0 mm 8 mps 756 mmHg 41%
    13:00 +40°C° 0 mm 8 mps 756 mmHg 34%
    14:00 +39°C° 0 mm 8 mps 755 mmHg 36%
    15:00 +38°C° 0 mm 9 mps 755 mmHg 38%
    16:00 +37°C° 0 mm 9 mps 754 mmHg 40%
    17:00 +34°C° 0 mm 9 mps 755 mmHg 53%
    18:00 +31°C° 0 mm 8 mps 755 mmHg 65%
    19:00 +28°C° 0 mm 8 mps 756 mmHg 78%
    20:00 +27°C° 0 mm 7 mps 757 mmHg 80%
    21:00 +27°C° 0 mm 7 mps 757 mmHg 83%
    22:00 +27°C° 0 mm 7 mps 758 mmHg 85%
    23:00 +27°C° 0 mm 7 mps 757 mmHg 85%

    Day after tomorrow, 18 February, Monday

    Time Temperature Precipitation Wind Pressure Humidity
    00:00 +27°C° 0 mm 7 mps 757 mmHg 85%
    01:00 +27°C° 0 mm 7 mps 757 mmHg 85%
    02:00 +27°C° 0 mm 7 mps 757 mmHg 86%
    03:00 +26°C° 0 mm 7 mps 756 mmHg 87%
    04:00 +26°C° 0 mm 7 mps 756 mmHg 88%
    05:00 +26°C° 0.1 mm 7 mps 757 mmHg 87%
    06:00 +27°C° 0.1 mm 8 mps 757 mmHg 85%
    07:00 +27°C° 0.1 mm 8 mps 758 mmHg 84%
    08:00 +28°C° 0.1 mm 8 mps 758 mmHg 76%
    09:00 +31°C° 0.1 mm 8 mps 759 mmHg 68%
    10:00 +32°C° 0.1 mm 8 mps 759 mmHg 60%
    11:00 +33°C° 0 mm 8 mps 758 mmHg 57%
    12:00 +34°C° 0 mm 8 mps 758 mmHg 53%
    13:00 +34°C° 0 mm 9 mps 757 mmHg 50%
    14:00 +34°C° 0 mm 8 mps 757 mmHg 51%
    15:00 +33°C° 0 mm 8 mps 756 mmHg 52%
    16:00 +33°C° 0 mm 8 mps 756 mmHg 53%
    17:00 +31°C° 0 mm 8 mps 756 mmHg 61%
    18:00 +28°C° 0 mm 8 mps 757 mmHg 68%
    19:00 +27°C° 0 mm 8 mps 757 mmHg 76%
    20:00 +26°C° 0 mm 7 mps 758 mmHg 79%
    21:00 +26°C° 0 mm 7 mps 758 mmHg 82%
    22:00 +26°C° 0 mm 7 mps 758 mmHg 84%
    23:00 +26°C° 0 mm 7 mps 758 mmHg 86%

    19 February, Tuesday

    Time Temperature Precipitation Wind Pressure Humidity
    00:00 +24°C° 0 mm 7 mps 758 mmHg 87%
    01:00 +24°C° 0 mm 7 mps 757 mmHg 88%
    02:00 +24°C° 0 mm 7 mps 757 mmHg 88%
    03:00 +24°C° 0 mm 7 mps 757 mmHg 89%
    04:00 +24°C° 0 mm 7 mps 757 mmHg 89%
    05:00 +24°C° 0 mm 7 mps 757 mmHg 87%
    06:00 +24°C° 0 mm 7 mps 757 mmHg 85%
    07:00 +26°C° 0 mm 7 mps 758 mmHg 84%
    08:00 +27°C° 0 mm 7 mps 758 mmHg 76%
    09:00 +29°C° 0 mm 7 mps 758 mmHg 69%
    10:00 +30°C° 0 mm 7 mps 759 mmHg 61%
    11:00 +32°C° 0 mm 7 mps 758 mmHg 59%
    12:00 +32°C° 0 mm 7 mps 757 mmHg 57%
    13:00 +33°C° 0 mm 7 mps 756 mmHg 55%
    14:00 +32°C° 0 mm 7 mps 756 mmHg 57%
    15:00 +32°C° 0 mm 8 mps 755 mmHg 58%
    16:00 +32°C° 0 mm 8 mps 755 mmHg 60%
    17:00 +29°C° 0 mm 7 mps 755 mmHg 66%
    18:00 +28°C° 0 mm 7 mps 756 mmHg 72%
    19:00 +27°C° 0 mm 7 mps 756 mmHg 78%
    20:00 +26°C° 0 mm 7 mps 756 mmHg 80%
    21:00 +26°C° 0 mm 7 mps 757 mmHg 83%
    22:00 +24°C° 0 mm 7 mps 757 mmHg 85%
    23:00 +24°C° 0 mm 7 mps 757 mmHg 87%

    20 February, Wednesday

    Time Temperature Precipitation Wind Pressure Humidity
    00:00 +24°C° 0 mm 6 mps 756 mmHg 88%
    01:00 +24°C° 0 mm 6 mps 756 mmHg 89%
    02:00 +24°C° 0 mm 6 mps 756 mmHg 89%
    03:00 +24°C° 0 mm 6 mps 756 mmHg 90%
    04:00 +24°C° 0 mm 6 mps 756 mmHg 90%
    05:00 +24°C° 0 mm 6 mps 756 mmHg 88%
    06:00 +24°C° 0 mm 6 mps 757 mmHg 86%
    07:00 +26°C° 0 mm 7 mps 757 mmHg 84%
    08:00 +28°C° 0 mm 7 mps 757 mmHg 72%
    09:00 +30°C° 0 mm 7 mps 757 mmHg 61%
    10:00 +33°C° 0 mm 7 mps 758 mmHg 49%
    11:00 +34°C° 0 mm 7 mps 757 mmHg 45%
    12:00 +37°C° 0 mm 8 mps 756 mmHg 40%
    13:00 +38°C° 0 mm 8 mps 755 mmHg 36%
    14:00 +37°C° 0 mm 8 mps 755 mmHg 38%
    15:00 +35°C° 0 mm 8 mps 754 mmHg 40%
    16:00 +34°C° 0 mm 9 mps 754 mmHg 42%
    17:00 +32°C° 0 mm 8 mps 754 mmHg 49%
    18:00 +29°C° 0 mm 8 mps 755 mmHg 56%
    19:00 +27°C° 0 mm 7 mps 755 mmHg 63%
    20:00 +27°C° 0 mm 7 mps 756 mmHg 69%
    21:00 +26°C° 0 mm 7 mps 756 mmHg 74%
    22:00 +24°C° 0 mm 7 mps 757 mmHg 80%
    23:00 +24°C° 0 mm 6 mps 756 mmHg 83%

    21 February, Thursday

    Time Temperature Precipitation Wind Pressure Humidity
    00:00 +24°C° 0 mm 6 mps 756 mmHg 86%
    01:00 +24°C° 0 mm 6 mps 756 mmHg 88%
    02:00 +24°C° 0 mm 6 mps 756 mmHg 88%
    03:00 +24°C° 0 mm 6 mps 756 mmHg 87%
    04:00 +24°C° 0 mm 6 mps 756 mmHg 87%
    05:00 +26°C° 0 mm 6 mps 756 mmHg 85%
    06:00 +26°C° 0 mm 7 mps 757 mmHg 83%
    07:00 +26°C° 0 mm 7 mps 757 mmHg 81%
    08:00 +28°C° 0 mm 7 mps 757 mmHg 72%
    09:00 +30°C° 0 mm 7 mps 758 mmHg 63%
    10:00 +33°C° 0 mm 7 mps 758 mmHg 54%
    11:00 +34°C° 0 mm 7 mps 757 mmHg 48%
    12:00 +37°C° 0 mm 8 mps 756 mmHg 42%
    13:00 +38°C° 0 mm 8 mps 756 mmHg 37%
    14:00 +37°C° 0 mm 8 mps 755 mmHg 40%
    15:00 +35°C° 0 mm 9 mps 755 mmHg 44%
    16:00 +34°C° 0 mm 9 mps 754 mmHg 47%
    17:00 +32°C° 0 mm 8 mps 755 mmHg 57%
    18:00 +29°C° 0 mm 8 mps 755 mmHg 67%
    19:00 +27°C° 0 mm 7 mps 756 mmHg 77%
    20:00 +27°C° 0 mm 7 mps 756 mmHg 80%
    21:00 +27°C° 0 mm 7 mps 757 mmHg 83%
    22:00 +27°C° 0 mm 7 mps 757 mmHg 86%
    23:00 +27°C° 0.1 mm 7 mps 757 mmHg 86%
    Show more